Back to catalog

HULIANWANG DIGUI-147

AliveCommunicationsLEO
NORAD 67523·PAYLOAD·🇨🇳 China

Launched Jan 19, 2026 from Wenchang Space Launch Site

Loading…

Next Passes (next 24 hours)

TLE

FreshSource: Space-Track

Epoch: Sep 14, 2026, 09:19 UTC

1 67523U 26013B   26257.38833488 -.00000109  00000-0  33128-4 0  9994
2 67523  50.0062  35.8620 0000796  86.9078 273.1885 13.29330832 31914

Track HULIANWANG DIGUI-147 in real time with AllMySat

Download on the App Store